Theta_e
302 302 301 301 300 300 301 301 302 302 302 299 298 300 294 293 290 300 303 304 302 297 289 291 290 289 292 296 295 296 295 293 294 292 294 292 293 292 292 292 292 294 294 293 293 294 292 293 292 295 295 296 298 302 301 301 300 299 297 298 302 301 294 291 292 295 299 299 301 302 302 301 298 298 299 298 295 297 295 295 296 292 293 291 291 288 294
301 300 300 300 300 301 302 301 301 302 302 301 300 296 294 296 293 295 301 304 302 295 284 285 287 289 293 294 294 295 294 293 291 291 293 292 291 291 292 294 296 293 295 294 292 295 289 294 293 293 296 296 305 304 303 302 298 297 297 295 302 291 296 294 288 288 291 294 296 296 299 300 297 297 299 299 298 298 299 299 300 291 293 293 290 285 294
300 300 299 300 301 301 301 301 300 302 301 302 300 294 296 293 297 297 297 302 300 291 292 289 287 289 291 291 290 292 292 293 292 292 292 293 291 291 292 294 295 294 295 295 297 296 294 293 298 297 298 300 305 305 305 304 299 300 303 303 304 295 295 294 286 283 281 281 283 285 289 294 297 299 299 300 298 299 297 291 293 289 294 295 291 290 300
300 299 300 301 301 301 300 300 301 301 301 302 300 296 294 290 285 292 294 297 297 296 299 296 292 290 291 288 291 291 290 291 293 293 291 292 291 293 294 295 295 292 293 293 294 295 298 295 295 297 298 301 303 305 305 304 300 306 306 306 302 297 299 299 296 290 288 291 294 301 298 296 294 297 298 298 299 300 299 298 292 290 294 292 295 298 299
300 300 300 301 300 300 299 300 301 301 301 302 300 297 294 294 288 288 286 293 293 292 295 294 295 290 294 286 290 288 289 290 290 294 288 291 291 292 293 292 291 293 294 295 294 295 294 296 296 295 298 302 303 306 307 304 306 306 303 306 301 297 293 298 299 296 296 297 300 302 299 296 296 297 296 298 299 300 299 293 291 298 294 289 302 303 300
300 301 301 300 300 299 299 301 301 301 302 303 301 293 295 288 293 295 295 288 285 287 289 293 294 296 294 289 294 291 288 288 286 293 293 294 296 290 292 293 293 294 296 297 292 294 294 294 293 299 301 301 304 303 306 304 307 304 303 307 302 296 291 297 299 298 299 300 300 301 302 301 300 300 299 298 299 301 297 296 300 298 291 290 301 303 302
301 301 300 299 300 301 302 302 302 302 302 303 300 291 296 297 297 298 300 291 294 290 294 295 294 294 294 291 293 292 292 290 290 293 293 293 293 294 287 291 293 295 297 297 295 295 291 291 300 299 300 301 302 300 302 305 306 304 303 303 308 300 296 298 301 298 299 298 299 300 299 300 299 299 300 300 300 302 303 303 305 302 299 301 304 304 303
301 300 299 299 300 301 302 302 302 302 302 303 298 296 292 293 293 293 297 296 296 294 295 295 294 293 295 289 292 293 294 292 293 295 293 289 293 296 291 292 296 298 297 297 296 297 297 300 295 302 302 301 303 300 300 299 303 303 301 303 305 302 293 300 301 297 297 298 299 300 299 299 297 299 300 300 301 301 300 301 303 304 303 306 305 301 296
300 299 299 300 300 301 301 302 303 302 303 299 296 296 299 298 299 298 295 291 296 295 295 295 294 291 294 291 294 295 295 294 296 294 296 294 293 295 294 296 295 298 300 299 298 300 303 303 303 305 303 297 302 299 300 303 299 301 302 303 302 304 295 301 301 292 292 297 299 299 300 299 298 297 297 299 300 298 300 299 303 305 303 305 304 299 295
300 300 300 300 301 301 302 302 303 302 303 299 298 294 301 301 303 301 297 290 295 293 294 296 295 289 294 295 296 295 296 296 296 291 296 296 296 296 298 298 298 297 298 298 300 303 303 302 302 302 302 304 302 303 304 304 301 299 302 305 298 300 297 294 295 290 290 295 299 299 298 296 291 291 294 297 298 300 300 302 303 304 307 301 296 299 300
299 299 301 301 301 301 302 302 302 303 303 298 297 296 298 296 294 297 298 291 293 296 293 294 293 295 297 298 296 297 297 297 297 292 291 297 297 298 298 299 297 295 295 299 302 305 305 306 306 306 305 304 304 304 305 305 305 304 302 302 302 302 299 295 298 290 291 292 296 297 294 285 287 294 297 296 298 300 299 296 299 301 305 301 302 298 298
300 300 300 301 301 302 302 302 302 302 302 302 302 298 300 301 299 297 293 288 291 297 294 291 293 297 296 299 298 297 295 297 298 298 294 298 297 298 299 300 300 292 300 304 304 304 306 306 305 305 304 303 303 303 303 302 303 304 306 304 301 299 298 296 299 293 290 293 293 289 284 284 291 297 299 300 300 299 297 296 299 300 301 301 298 297 296
300 300 301 301 301 302 302 302 302 302 303 303 302 297 300 302 296 294 294 292 290 294 290 295 297 296 297 295 295 297 298 298 299 299 298 298 297 298 297 300 300 300 305 303 302 303 299 297 297 300 299 301 301 301 301 302 301 303 305 306 303 297 296 296 294 296 294 291 290 282 283 289 295 297 299 301 301 300 299 295 296 299 300 300 296 295 294
300 300 300 301 301 302 302 302 302 303 302 303 302 301 301 301 294 294 294 291 292 295 296 296 296 295 296 290 293 296 297 296 299 302 297 298 298 297 298 298 298 302 303 302 301 303 296 298 292 294 294 297 297 296 297 300 301 302 302 302 305 303 300 296 293 296 288 290 289 288 291 292 294 293 296 298 296 298 298 291 292 297 300 299 294 292 292
299 300 301 301 301 301 302 302 302 302 303 303 303 303 301 301 299 296 297 295 291 294 296 290 292 292 296 296 296 295 296 296 296 295 298 300 297 297 298 298 300 299 302 299 298 299 295 292 288 288 289 288 285 288 297 294 299 302 303 304 304 306 297 300 294 289 295 291 287 287 287 285 290 297 300 301 301 302 302 299 292 298 299 299 296 292 291
300 300 300 301 301 301 302 302 302 302 303 303 303 302 302 303 302 300 296 295 293 289 291 289 292 292 298 296 297 294 293 294 295 296 296 297 296 298 299 300 301 302 300 298 299 295 293 290 288 288 286 287 292 291 289 296 295 300 304 304 303 304 305 300 295 291 293 291 288 286 285 287 295 297 298 302 303 304 303 299 293 298 300 299 297 293 293
300 300 300 301 301 301 302 302 302 302 303 304 301 302 301 305 301 299 297 297 296 289 296 295 294 294 297 295 296 295 296 294 296 292 292 294 295 296 298 301 304 304 300 300 299 295 292 290 293 289 290 293 289 289 294 293 292 294 299 302 301 300 297 297 294 291 292 291 288 288 289 287 294 299 300 301 304 301 301 289 289 297 300 301 299 295 293
299 300 300 301 301 301 302 302 302 303 303 304 303 301 301 305 304 303 299 296 292 292 298 297 294 296 296 295 295 298 297 298 297 299 296 296 297 296 296 300 298 299 303 296 297 292 290 290 287 288 287 293 294 294 286 293 290 290 292 294 294 293 293 295 291 292 291 289 291 290 288 293 298 298 300 301 303 301 289 286 294 299 300 300 299 297 296
299 300 300 300 301 301 302 302 302 302 303 304 305 303 303 305 305 304 299 297 296 289 296 298 297 296 299 299 299 298 299 299 301 294 293 294 296 297 298 297 300 294 299 295 297 291 290 289 294 292 289 290 295 288 294 290 287 291 292 292 291 292 292 292 294 291 290 291 289 289 290 293 299 298 299 302 298 289 289 294 302 301 299 300 299 297 297
300 300 300 300 300 301 301 302 302 303 303 304 304 300 303 305 306 304 299 296 297 296 297 297 296 296 300 299 298 299 300 301 300 298 296 292 299 300 297 293 298 299 296 298 290 294 291 288 291 294 291 290 291 295 290 287 292 292 290 290 291 290 289 290 290 289 291 291 289 286 284 288 299 300 299 301 293 293 296 299 301 302 300 299 297 296 294
300 300 300 300 301 301 302 302 302 303 303 303 303 302 301 306 305 305 304 300 296 295 295 300 301 299 300 301 302 301 301 300 301 298 300 300 302 299 290 289 295 295 292 293 288 289 292 290 293 292 297 294 292 294 288 288 290 292 292 292 293 292 290 291 290 294 288 288 286 286 290 294 299 300 293 298 299 301 302 301 298 300 300 298 296 294 294
300 300 300 301 301 302 302 302 302 303 303 303 303 303 299 304 304 304 304 302 296 294 299 302 302 302 302 303 304 305 303 303 304 304 303 297 302 300 299 299 299 299 299 299 294 291 296 296 297 291 290 291 296 291 293 289 287 291 294 294 288 293 292 293 290 289 290 289 289 288 291 294 298 300 298 299 300 303 304 303 301 299 299 300 296 294 294
300 300 300 301 301 302 302 302 302 303 303 303 303 301 298 301 302 306 305 298 300 301 304 304 303 301 302 302 305 305 306 307 307 309 307 302 296 302 301 300 299 303 302 303 298 296 296 296 291 296 293 295 292 290 293 294 290 291 288 293 293 294 297 298 294 286 292 293 294 294 294 295 296 298 299 299 300 303 304 302 300 301 300 301 297 296 295
300 300 300 301 301 302 302 302 303 303 303 304 304 302 300 302 302 303 300 299 298 295 301 304 301 296 298 299 303 306 306 305 305 307 309 308 297 296 301 303 304 305 304 305 303 300 298 298 297 299 291 295 297 291 288 288 290 294 291 290 294 295 296 297 292 293 292 286 293 292 292 295 297 296 297 299 301 302 303 302 301 301 301 299 298 296 295
300 300 300 301 301 302 302 303 303 304 304 303 304 305 304 302 303 303 300 291 293 295 291 294 296 300 302 304 305 304 304 305 308 310 310 309 308 301 300 307 308 306 303 304 306 303 298 294 294 294 289 295 298 290 297 292 290 297 291 291 293 291 299 295 293 292 290 288 290 292 293 294 296 297 296 296 299 301 302 302 303 302 302 300 298 297 296
300 300 301 301 302 302 303 303 304 304 304 304 304 303 302 303 306 306 303 302 299 298 293 291 296 303 304 303 300 302 305 306 307 308 309 308 310 311 306 306 305 308 306 307 308 299 296 296 294 295 293 291 300 294 292 295 295 296 294 292 297 296 297 291 294 288 287 291 292 292 293 292 292 294 296 297 299 299 300 301 301 300 298 297 298 299 299
300 301 301 301 302 303 303 303 304 304 304 304 305 306 305 306 307 305 303 301 298 294 295 292 297 300 302 299 302 305 305 306 308 307 307 307 307 309 309 307 304 304 304 303 303 298 298 296 295 294 298 294 299 297 297 295 295 291 291 293 296 296 293 296 292 287 287 288 289 293 289 289 290 292 294 295 298 299 298 299 298 298 297 296 296 298 299
300 301 301 302 302 303 303 304 304 304 304 305 306 307 308 307 307 307 308 305 303 294 294 294 295 299 304 299 302 304 304 306 306 305 305 305 306 307 307 306 306 304 302 299 295 295 295 293 291 293 293 298 296 292 298 297 297 294 293 292 295 295 296 295 291 291 290 296 295 297 299 297 293 293 294 296 298 298 297 298 297 297 298 298 297 296 296
300 301 301 302 303 303 304 304 304 304 304 305 308 307 307 309 310 308 308 310 307 303 298 298 301 300 292 296 303 302 304 305 304 304 304 303 304 305 304 304 304 303 302 299 296 296 294 293 295 295 294 298 297 291 294 289 290 288 289 292 292 294 295 297 297 297 298 298 297 298 297 292 292 294 295 296 298 298 297 297 297 297 297 298 297 297 296
300 301 302 302 303 303 303 304 304 304 304 307 306 304 301 302 309 309 310 309 308 307 296 292 290 291 301 300 300 301 301 303 303 303 302 301 302 302 302 303 302 303 302 297 296 292 294 293 293 298 298 301 295 293 291 291 288 287 292 293 295 296 297 299 299 297 295 298 299 299 296 295 295 295 296 297 298 298 296 296 296 296 296 297 296 296 297
301 301 302 302 303 303 303 304 304 304 305 307 305 297 295 291 301 310 307 309 310 307 298 296 292 296 295 300 301 298 299 300 301 301 301 301 301 301 302 303 302 302 296 296 295 294 294 291 292 294 297 296 294 293 291 289 286 287 291 293 295 295 296 297 299 300 298 297 297 297 296 294 295 294 294 295 295 296 296 296 296 296 296 297 296 296 296
301 302 302 303 303 303 304 304 305 305 310 309 304 302 302 304 308 309 306 308 309 306 296 292 291 292 291 295 300 301 299 300 302 301 300 302 300 301 301 301 297 300 296 295 295 294 291 293 292 294 295 296 294 292 293 291 287 287 292 293 296 296 297 296 296 296 297 298 296 293 291 292 295 293 291 294 295 296 296 295 296 296 296 296 296 296 296
301 302 302 302 303 303 304 304 304 305 311 310 304 304 304 302 303 305 307 309 308 301 303 294 289 290 290 293 300 299 300 301 300 300 296 301 299 301 296 302 301 299 300 296 292 290 295 293 293 291 295 299 291 290 290 286 287 292 293 294 295 296 295 296 297 297 297 298 299 292 290 291 292 295 296 296 296 295 295 294 294 295 295 295 295 294 295
301 302 302 302 303 304 304 304 304 302 303 308 306 305 309 304 308 303 311 313 306 304 299 292 289 288 289 297 293 296 300 295 295 298 291 298 301 300 295 298 298 292 295 293 294 294 294 293 292 291 295 292 293 289 284 286 291 291 293 294 295 295 295 295 295 295 296 297 298 297 297 296 297 296 295 294 294 295 295 295 295 294 294 294 293 293 294
301 301 302 302 303 304 304 304 311 307 303 304 305 308 310 303 304 306 307 308 298 293 292 292 293 289 288 289 288 292 300 297 292 296 292 295 301 297 297 292 293 290 290 300 292 292 290 290 295 291 288 294 289 284 285 288 290 292 293 292 293 293 293 292 293 295 296 297 297 296 296 297 295 294 294 294 293 294 294 294 294 293 292 292 292 293 293
301 301 302 303 303 304 308 309 308 306 303 303 304 307 304 305 307 314 311 312 308 295 291 290 292 289 290 286 286 290 299 294 297 297 296 294 295 298 298 293 288 290 297 293 289 293 290 294 293 288 290 287 283 287 288 291 291 292 292 292 293 293 293 293 293 295 295 295 296 296 296 296 295 294 294 293 293 293 293 292 292 293 292 292 292 293 293
301 301 302 302 308 309 303 300 305 306 304 305 305 304 302 305 311 313 311 310 308 310 298 291 290 291 294 289 291 292 297 288 295 293 294 292 289 292 293 290 287 291 290 290 290 289 292 299 292 286 286 283 285 291 292 292 292 291 292 293 294 295 295 295 295 296 295 294 294 294 295 295 294 294 293 292 292 293 292 291 292 291 291 292 292 292 293
301 301 306 305 303 296 296 298 304 307 302 303 304 306 306 304 296 297 297 295 298 303 295 298 291 294 296 296 288 296 297 290 296 290 290 293 290 288 292 289 288 290 284 287 289 295 293 291 287 285 284 289 290 292 292 293 293 293 293 293 294 295 295 295 295 295 293 292 291 293 294 294 293 293 292 292 293 292 292 294 294 294 294 294 294 294 294
301 306 307 304 301 296 296 305 308 301 304 307 307 299 294 296 295 291 291 294 294 292 295 295 291 296 295 292 293 299 296 291 290 293 288 293 290 285 291 285 288 289 285 286 288 297 287 287 287 286 284 287 288 290 293 292 292 292 293 293 294 294 295 294 296 295 294 292 293 294 292 292 292 292 293 294 295 295 295 295 295 295 295 295 295 295 295
306 301 297 297 297 299 306 307 304 303 307 298 297 296 290 294 290 288 294 290 290 291 294 290 296 296 298 295 292 291 299 296 289 288 289 290 297 288 289 289 289 287 281 283 285 295 287 283 286 286 284 287 288 292 293 293 292 292 293 294 294 294 295 295 295 295 294 294 294 294 296 295 295 294 294 293 294 294 294 295 295 296 295 295 295 296 296
300 302 301 296 301 302 303 303 306 305 298 294 293 292 290 288 291 291 290 288 288 289 295 296 296 295 296 297 297 291 296 301 298 299 294 288 294 294 288 284 290 285 282 282 288 290 288 286 286 286 286 290 290 292 292 293 293 294 294 294 294 294 294 295 295 295 295 293 294 294 293 294 295 295 295 295 295 295 295 295 295 295 296 295 295 296 297
296 296 298 298 298 299 301 302 298 294 293 293 289 286 288 289 291 290 291 287 287 291 294 296 291 294 293 297 296 297 295 299 296 292 291 287 290 289 286 287 288 284 280 286 290 288 286 281 283 284 289 292 293 293 293 292 293 293 294 295 294 294 294 294 295 295 295 294 294 295 295 294 294 294 295 295 296 296 295 296 295 296 296 297 297 296 296
298 299 299 298 298 297 296 292 293 292 287 287 285 283 287 285 287 287 288 291 292 294 293 300 298 298 298 300 296 299 295 299 293 292 290 287 290 290 287 285 285 280 284 291 288 284 282 281 282 286 292 293 294 294 295 295 294 294 294 295 295 296 296 295 295 295 296 296 296 296 295 295 295 296 296 297 296 296 296 297 297 297 297 297 296 296 296
301 300 297 294 292 292 293 284 292 289 285 286 285 281 284 283 286 288 286 289 292 292 295 293 293 294 289 296 294 291 292 295 294 292 290 290 289 286 285 283 283 288 292 286 285 282 282 285 287 289 293 294 295 295 295 296 295 295 295 297 298 298 297 296 296 296 296 296 296 296 296 296 297 297 297 297 297 296 296 296 297 297 297 297 295 295 296
296 292 291 291 288 290 288 281 291 287 283 285 286 286 286 284 286 288 288 293 296 293 296 298 295 296 291 295 295 294 293 290 293 290 285 289 286 287 285 282 287 288 285 282 283 284 283 283 289 291 292 292 294 295 296 296 296 296 296 296 297 297 297 297 296 296 296 296 296 297 296 296 296 296 296 296 297 297 297 296 297 296 297 296 295 294 295
292 291 290 284 279 285 287 284 285 283 287 289 288 290 290 291 292 291 296 298 296 296 295 296 296 296 292 295 291 290 292 292 289 288 288 289 285 282 287 290 289 284 282 284 281 280 282 286 288 290 292 294 294 296 296 296 296 296 295 294 296 296 296 296 296 296 296 296 296 296 296 296 296 296 297 298 298 297 297 298 298 297 297 295 293 292 293
291 291 291 289 284 287 289 284 285 288 291 291 293 294 294 294 296 297 297 298 297 298 298 299 298 296 293 291 291 291 292 292 287 288 290 285 283 285 288 286 280 282 279 279 281 283 285 289 291 292 293 294 295 296 296 296 296 296 295 296 296 296 297 296 296 296 296 297 296 296 296 296 297 297 298 297 298 298 298 298 299 298 296 295 294 293 293
288 291 290 283 281 286 284 287 292 291 291 294 295 296 296 296 295 294 297 299 300 299 297 296 292 293 292 294 295 290 290 291 287 287 289 286 287 285 283 281 282 284 285 283 284 287 289 291 292 292 294 295 295 295 295 296 296 296 296 296 297 297 297 297 296 296 297 297 296 296 297 297 298 297 297 297 297 298 298 298 298 297 296 295 294 293 293
292 289 287 287 288 288 289 293 291 289 291 293 293 295 295 294 293 296 298 299 298 298 298 296 293 292 289 291 290 288 286 290 285 284 287 286 282 279 280 278 280 280 285 288 289 290 292 293 294 294 294 294 295 296 295 296 296 296 296 296 297 297 297 297 297 297 297 297 297 297 297 297 297 297 297 296 296 296 298 298 298 298 297 296 295 294 294
290 288 288 287 287 288 291 292 290 289 291 292 292 292 294 294 294 297 299 297 299 298 297 295 295 292 289 289 286 287 287 289 287 287 285 282 283 284 283 280 282 283 286 290 291 291 295 295 295 294 294 295 295 295 295 296 295 296 297 297 297 297 297 297 297 298 297 297 297 298 298 298 297 297 296 295 296 297 298 297 297 297 297 297 296 296 295
293 290 290 295 289 288 289 286 286 287 289 290 292 293 294 293 295 296 299 299 298 295 293 290 291 289 288 287 286 282 285 289 287 285 285 284 287 285 283 282 285 288 291 294 295 296 296 296 295 294 295 295 295 295 296 296 297 297 297 298 297 297 297 298 298 298 298 298 299 294 298 297 297 298 298 298 297 296 296 296 297 297 297 297 297 297 297
289 287 288 291 292 292 292 293 293 292 292 293 293 295 296 294 297 299 300 298 296 292 290 292 290 288 285 284 286 289 289 288 285 285 283 286 288 285 285 287 290 292 294 293 295 296 296 297 296 295 295 294 295 296 297 297 297 297 297 298 298 298 298 298 298 298 299 299 299 299 298 298 298 298 298 298 297 296 295 295 296 297 297 297 298 298 298
Wind_Speed
11 12 10 7 7 6 6 4 5 5 5 5 2 3 4 4 3 3 7 9 11 6 7 6 6 9 7 4 5 6 5 6 1 4 4 4 1 4 6 7 7 7 7 6 6 10 11 15 12 9 12 10 9 4 15 11 14 15 11 11 5 4 4 10 12 12 7 5 3 2 3 9 13 14 13 14 15 14 11 9 9 8 6 7 5 5 4
11 10 5 5 5 5 4 4 5 5 2 1 2 5 3 1 4 4 6 8 5 6 7 7 7 8 6 6 8 4 6 4 5 7 3 4 1 3 4 6 9 9 7 6 8 10 5 6 11 10 9 7 7 6 9 12 12 15 10 9 9 5 6 10 10 9 9 7 6 7 6 9 10 10 11 15 16 18 12 6 9 8 10 11 7 9 5
6 5 5 4 5 3 3 3 4 6 2 1 3 2 1 2 3 5 6 6 6 6 2 4 6 8 8 8 10 8 7 6 8 6 5 2 5 5 7 11 8 8 5 8 10 13 11 9 5 6 9 4 5 5 7 11 11 11 4 7 8 6 5 9 13 15 15 15 16 14 13 14 11 12 13 8 13 13 10 9 9 7 8 9 8 3 10
3 4 6 4 2 3 2 2 5 3 3 2 4 2 3 2 3 4 5 6 4 6 4 4 4 7 8 4 7 8 8 4 5 6 8 7 8 10 11 12 11 12 11 10 10 11 10 11 7 9 7 5 5 4 10 10 7 6 3 8 9 2 1 2 2 9 12 10 6 3 10 11 13 12 14 13 12 15 14 9 7 8 8 9 7 12 14
5 7 6 4 1 2 1 4 3 2 2 3 4 2 2 2 1 4 6 4 6 5 4 4 5 5 6 5 5 9 9 3 3 6 4 6 9 10 12 10 6 7 9 9 10 11 14 11 11 9 8 4 4 5 8 9 5 10 6 6 6 3 3 3 4 9 6 4 4 3 7 15 14 13 14 10 9 9 11 6 8 8 10 8 8 19 17
7 6 4 2 1 1 3 4 2 1 3 5 3 2 2 2 2 3 5 2 5 7 5 6 5 3 5 5 2 5 8 7 5 2 9 8 8 8 4 10 12 13 7 7 7 12 13 14 7 11 7 9 8 8 9 9 7 9 7 5 5 10 4 3 4 8 7 5 5 5 9 8 8 9 10 10 6 7 12 11 7 12 6 5 12 14 13
6 6 4 3 4 6 5 2 3 3 3 4 3 1 1 3 2 2 5 3 1 6 2 10 6 6 6 4 5 5 6 9 8 5 5 9 10 12 6 10 13 12 12 8 7 13 11 9 10 8 9 10 11 8 8 5 9 9 9 7 1 5 1 5 5 9 8 8 6 5 10 10 10 8 7 6 5 5 4 6 4 2 2 7 14 10 11
8 6 4 4 5 5 4 5 4 3 4 5 3 1 2 1 2 1 3 3 2 5 4 6 8 6 7 4 7 6 5 5 6 5 5 4 7 10 12 12 6 5 8 8 7 9 7 9 6 9 13 8 6 9 6 9 9 10 9 7 2 6 4 7 7 6 7 6 5 7 9 11 12 9 8 6 6 7 6 6 4 5 7 14 18 16 10
7 7 6 5 5 5 5 6 7 5 6 4 1 2 1 3 3 4 2 5 2 4 6 5 7 5 6 7 4 5 5 4 3 5 5 7 6 4 7 8 4 5 4 7 5 3 2 10 11 11 10 9 6 3 5 11 12 11 7 5 4 3 4 4 3 4 3 4 5 8 10 12 14 11 9 7 5 7 5 3 4 2 9 14 15 12 8
8 8 7 7 7 7 7 8 8 6 6 2 1 2 3 3 2 4 3 2 2 5 6 4 4 5 6 6 4 3 3 3 1 2 5 3 3 1 8 11 6 4 8 8 8 7 9 11 11 9 8 8 6 4 6 6 12 9 6 3 7 6 8 5 6 5 3 3 3 10 11 11 8 4 5 5 4 6 7 7 6 9 2 11 7 5 12
8 7 8 8 7 7 8 8 8 9 5 2 2 2 4 5 4 3 2 4 2 5 6 6 7 1 1 6 6 6 4 3 1 3 1 1 3 2 1 9 9 7 3 1 5 8 13 14 14 11 13 14 10 8 10 12 7 5 8 5 3 9 10 6 7 3 5 3 4 4 4 9 4 5 1 4 3 2 6 6 6 10 8 6 8 13 16
8 8 8 7 8 9 8 8 9 9 6 3 2 2 3 4 4 2 2 4 2 3 4 4 5 1 3 3 3 3 3 3 2 4 4 4 3 4 1 9 11 7 5 6 5 3 12 17 15 15 14 16 16 14 15 13 8 5 2 3 8 10 8 4 4 4 6 5 3 3 8 4 2 3 1 2 3 7 11 10 7 7 9 13 16 15 15
9 9 9 9 9 9 9 9 8 8 8 4 3 2 3 3 3 4 3 3 3 4 4 3 1 4 3 3 2 4 5 6 4 4 4 5 1 5 5 3 10 11 10 1 5 4 7 10 10 9 12 13 14 17 16 12 11 9 5 3 7 7 7 5 3 4 6 5 6 7 4 2 1 3 4 5 7 10 12 11 10 7 8 12 14 13 14
8 8 8 9 9 10 10 10 9 9 8 6 3 2 2 2 2 4 3 2 2 1 4 5 4 4 2 0 4 6 5 2 2 4 4 2 5 7 6 6 5 4 6 7 4 6 5 0 9 10 6 7 10 9 5 13 12 9 6 3 2 10 7 5 6 2 6 4 3 3 3 4 4 3 4 7 6 7 3 2 4 4 5 9 13 13 14
8 9 9 9 9 9 10 10 10 9 8 8 4 3 2 2 3 3 4 3 2 1 2 2 4 7 2 1 3 4 3 3 6 5 4 3 6 5 5 4 2 3 4 5 4 7 6 3 4 5 1 3 3 4 4 5 4 7 4 2 0 1 4 6 7 0 2 7 6 5 4 5 6 5 6 4 4 6 3 5 5 5 5 10 14 15 13
9 9 9 9 10 10 10 10 10 9 8 7 4 3 4 3 3 4 3 3 3 1 2 2 5 5 2 3 4 6 2 1 5 6 6 7 7 6 5 2 2 2 5 3 1 2 2 4 5 7 4 5 4 6 2 6 5 4 3 4 4 4 3 2 2 4 3 7 7 5 6 2 3 9 6 5 2 2 1 4 6 7 9 12 14 15 14
9 9 9 10 10 10 11 10 10 9 9 8 4 2 3 4 4 4 3 2 3 2 3 1 2 3 1 2 4 5 3 1 4 4 5 5 5 4 5 3 2 3 3 2 2 3 3 3 2 3 5 3 4 4 7 4 6 5 6 6 7 4 2 3 4 5 5 5 7 5 3 3 4 8 8 5 4 1 5 5 6 10 11 12 15 16 14
9 10 10 10 11 10 11 10 9 9 9 7 6 3 3 3 5 4 3 3 2 1 2 1 1 1 1 4 4 1 2 5 3 1 3 4 4 3 4 3 4 3 4 1 1 2 2 2 2 2 4 3 1 3 4 6 5 3 4 2 4 3 2 1 5 5 4 5 3 3 4 3 5 7 4 3 2 3 4 3 6 12 12 11 12 14 13
9 10 11 11 11 11 11 10 9 10 10 8 6 6 4 4 3 4 4 3 2 2 6 5 2 4 4 4 3 2 3 4 5 2 3 3 3 4 2 2 4 1 1 0 2 0 2 2 1 1 3 3 2 1 1 3 3 1 1 6 4 2 2 1 2 4 6 5 4 2 5 3 5 3 1 2 3 4 1 4 7 12 13 11 12 14 13
10 11 11 11 11 12 12 11 11 11 11 10 7 5 4 2 4 4 4 3 3 4 2 3 4 5 3 4 2 1 2 4 2 2 4 2 3 3 3 3 3 1 2 1 2 2 2 2 2 0 2 4 2 1 4 4 2 2 2 5 2 2 2 5 4 2 1 2 3 3 5 2 3 8 5 1 3 4 5 9 11 11 13 14 13 12 11
12 12 12 12 12 12 12 12 12 12 12 10 8 5 3 3 1 4 4 3 2 2 5 3 3 6 7 7 6 6 8 6 6 3 4 4 3 3 4 1 3 0 1 0 1 2 1 2 3 1 3 2 3 3 3 5 5 3 3 3 4 4 2 3 2 3 3 6 5 1 5 8 4 4 2 6 7 6 9 10 12 11 12 12 12 11 11
12 12 12 12 12 12 12 13 13 13 11 9 8 5 5 1 1 1 3 3 3 3 3 7 5 6 2 5 6 6 7 7 6 6 3 2 1 3 3 2 3 2 2 1 3 1 2 2 2 2 3 3 2 1 6 5 4 4 2 3 3 6 5 5 1 2 3 3 4 4 2 5 5 5 7 7 5 5 8 10 12 12 11 11 11 13 14
13 13 13 12 12 12 12 12 13 12 11 9 6 3 5 4 3 0 3 4 4 6 5 5 5 6 5 3 5 6 6 3 6 5 6 3 2 0 1 1 3 3 1 3 3 1 3 5 2 2 3 2 2 5 2 2 3 5 3 5 4 3 3 3 6 5 9 10 8 7 6 6 7 7 6 7 7 7 9 11 11 10 12 11 13 14 15
14 14 14 13 13 13 13 13 13 12 11 9 7 5 5 4 3 2 2 3 2 1 3 6 4 5 9 10 12 8 7 8 7 6 3 3 1 2 2 1 2 3 1 3 3 1 3 1 3 2 2 2 1 5 5 3 2 6 6 4 3 4 1 2 5 9 4 3 4 6 6 6 6 7 7 6 7 8 8 10 11 12 13 14 14 15 16
15 15 15 14 14 14 14 14 13 12 11 11 8 5 5 4 4 6 4 1 1 1 4 4 8 6 6 4 6 5 8 7 5 3 1 3 5 4 2 6 3 3 4 3 2 3 2 1 3 2 2 2 4 2 4 1 4 4 3 5 5 5 3 5 7 6 1 5 6 6 7 6 5 5 7 9 9 10 9 10 12 13 14 14 15 15 14
15 15 14 14 14 15 15 14 13 12 11 11 7 5 5 4 4 6 5 4 4 4 3 6 7 7 6 7 11 9 9 7 5 6 7 6 4 3 9 5 5 2 4 1 1 0 2 2 1 1 4 2 4 1 2 6 6 2 1 6 5 6 6 3 6 5 7 8 7 7 8 8 6 6 6 7 8 10 12 13 15 15 15 15 13 12 14
16 16 15 15 16 16 17 16 16 14 12 11 6 5 6 4 5 8 4 3 3 4 4 6 5 7 10 14 10 8 9 8 7 8 9 9 8 6 6 6 7 5 4 5 3 1 2 2 2 4 4 5 3 5 4 6 6 4 4 5 3 5 5 9 7 8 5 6 9 14 8 5 5 6 8 9 10 12 14 15 15 15 16 15 16 15 14
17 17 16 15 17 17 16 16 16 15 13 12 4 3 4 4 4 7 6 4 5 2 6 5 5 5 4 13 10 10 10 9 8 9 9 10 10 7 6 5 4 4 4 4 3 2 2 3 5 2 3 5 4 3 3 6 6 6 6 5 2 0 7 7 3 0 2 8 14 9 2 10 9 9 9 11 11 13 14 15 15 15 15 16 17 18 18
18 19 17 17 17 18 17 17 16 14 12 9 1 2 3 5 3 5 6 5 5 2 6 5 6 4 4 6 6 9 11 11 11 10 9 10 10 9 8 8 6 4 6 6 4 4 4 5 3 3 3 3 2 5 5 4 3 4 4 3 1 4 8 5 6 4 7 13 13 7 8 9 11 11 11 11 11 13 15 14 14 15 16 17 17 17 19
19 19 18 18 18 19 18 17 15 12 11 4 3 3 2 3 4 4 5 5 4 5 2 4 5 3 1 2 7 8 9 10 11 13 13 11 10 8 7 7 7 5 5 3 3 6 5 4 3 5 4 4 0 2 2 4 4 3 3 3 2 4 2 3 3 1 10 12 9 9 13 15 13 12 12 12 12 13 14 15 15 15 15 16 18 18 18
19 20 18 18 18 18 18 17 15 13 10 3 4 2 3 4 3 3 5 4 5 4 3 3 5 3 4 3 3 8 7 8 8 8 10 9 9 8 6 6 8 5 6 5 6 6 2 3 2 3 3 7 4 2 4 4 4 4 4 3 4 7 4 4 4 9 13 11 13 14 15 14 13 14 13 12 12 14 15 15 15 15 18 18 18 19 18
20 20 20 18 18 18 17 15 12 11 5 3 3 3 4 4 3 2 5 5 3 4 4 5 3 2 2 3 5 4 5 4 2 5 6 5 8 7 10 8 7 8 6 6 4 4 5 4 4 5 5 5 5 3 1 3 5 6 6 6 6 6 6 7 9 11 13 15 17 16 14 12 11 11 11 13 14 15 17 18 17 17 16 17 17 16 16
20 21 21 20 19 18 17 15 13 8 3 4 4 5 2 2 3 3 6 4 4 3 2 1 2 1 0 4 1 6 7 2 4 4 7 6 4 3 5 4 5 7 7 2 3 2 2 3 3 5 6 2 2 3 5 4 5 7 7 7 6 6 8 10 11 11 12 11 9 10 14 13 12 15 17 16 16 16 15 15 13 13 15 17 17 15 12
20 20 21 21 20 18 17 17 14 5 5 4 2 4 4 4 1 3 3 3 1 1 0 1 2 2 3 3 2 6 7 3 5 3 5 5 4 2 4 5 6 4 6 6 3 4 2 2 5 5 3 4 3 4 5 5 7 8 7 7 8 9 10 11 11 11 9 8 9 13 15 17 18 16 16 17 16 14 13 13 15 15 14 14 13 12 11
21 21 20 20 19 17 15 10 3 3 0 2 3 3 4 7 3 3 4 3 2 1 2 1 1 3 3 2 4 5 5 3 5 5 4 4 4 5 4 4 3 4 3 2 3 3 3 3 3 1 4 3 3 4 3 6 8 8 8 9 10 10 11 11 9 10 11 13 15 16 18 19 20 19 17 17 16 14 15 13 13 14 13 10 9 9 10
21 20 19 18 18 11 5 5 2 2 2 2 3 6 10 11 5 4 4 3 3 2 2 1 1 2 1 3 3 2 4 6 2 3 4 1 4 5 4 3 7 5 2 3 5 5 4 3 3 4 1 3 4 2 5 7 8 8 9 9 9 9 8 10 13 15 15 15 18 17 19 18 20 20 18 16 16 15 14 14 12 10 11 11 10 10 11
20 19 19 17 8 3 1 1 1 2 3 4 10 13 15 7 2 4 4 2 4 4 2 2 2 2 3 4 1 2 3 3 1 3 3 3 4 2 3 3 6 1 2 5 5 5 6 5 4 6 4 4 5 6 6 6 7 8 9 8 7 8 12 14 16 17 20 19 20 18 19 21 21 19 18 16 15 14 14 14 13 12 12 13 13 12 12
16 14 5 2 2 1 1 1 2 4 8 10 8 4 2 3 2 2 1 1 2 2 1 2 3 3 1 2 3 2 3 3 4 1 2 0 0 3 1 3 2 0 4 3 5 2 3 5 6 6 5 5 6 6 6 7 7 6 6 7 9 10 12 15 17 19 21 21 19 19 19 19 17 16 18 18 17 17 14 14 13 12 12 13 12 12 11
10 3 3 1 2 1 1 3 5 7 5 4 3 1 1 2 0 1 1 0 1 1 1 2 3 1 2 4 4 2 3 1 2 0 1 2 1 3 1 2 1 0 3 3 4 3 4 5 4 4 4 3 4 4 5 7 7 6 7 9 10 12 13 14 14 14 15 15 17 16 12 17 18 17 14 16 16 15 14 13 13 13 12 12 12 12 11
2 2 1 1 0 3 4 4 6 5 3 1 1 1 1 0 1 2 0 1 1 1 1 2 2 1 4 2 4 3 1 4 1 4 3 3 3 1 2 2 1 0 3 2 3 4 2 5 3 4 4 3 5 5 7 8 8 7 8 9 11 13 11 9 10 9 12 13 11 10 13 15 13 15 15 14 15 14 13 13 13 12 12 11 11 11 10
5 3 2 1 4 5 5 7 5 2 1 1 1 0 0 1 1 1 1 1 0 2 2 2 3 3 2 2 1 3 2 2 2 2 2 4 1 2 2 2 0 1 2 4 1 0 2 3 5 5 5 5 6 6 8 9 10 11 10 9 9 10 12 13 13 13 12 12 11 9 9 9 11 12 12 14 14 13 13 13 13 12 12 11 10 9 9
5 5 5 6 7 6 5 2 0 0 1 1 1 1 1 1 0 1 1 2 2 2 4 3 4 4 4 2 4 2 3 2 1 1 0 2 1 1 3 1 0 1 3 2 0 0 2 3 4 6 6 9 8 8 9 10 11 13 13 12 12 12 13 14 14 12 12 14 13 11 10 10 9 10 12 13 12 12 13 12 12 12 11 9 9 9 9
8 6 4 4 3 1 1 1 1 1 1 2 1 1 1 2 1 2 2 1 0 2 3 2 3 3 3 2 3 4 2 0 1 1 1 2 1 1 1 1 1 3 2 2 1 2 2 4 5 7 9 10 10 10 10 11 12 12 13 12 13 13 14 15 14 14 14 14 14 12 12 12 12 12 12 12 12 13 11 11 11 9 9 8 9 9 9
2 2 2 1 1 0 1 2 1 0 0 0 2 4 2 2 3 2 2 3 4 2 5 7 6 6 4 0 1 3 2 2 0 1 2 0 1 1 0 2 3 3 2 2 1 3 3 2 4 8 10 11 9 11 12 13 14 14 14 15 16 17 16 16 16 16 15 13 13 13 12 11 11 11 11 11 11 11 10 10 9 9 9 9 9 9 9
2 2 1 1 1 0 0 1 0 1 4 4 3 4 4 5 4 4 2 3 4 5 7 4 7 5 3 3 1 1 2 1 1 1 2 0 1 2 1 2 2 2 2 2 2 3 2 4 7 10 12 13 12 13 13 14 16 16 17 17 16 17 17 17 17 15 14 13 14 13 13 12 11 11 11 11 10 10 9 9 8 9 9 9 9 9 9
2 2 3 3 1 2 2 0 1 3 2 1 4 5 6 4 4 6 3 2 3 6 8 7 6 4 4 1 1 1 1 1 2 2 0 1 1 2 2 1 1 1 0 1 3 4 5 7 9 11 13 14 14 14 14 15 16 15 16 16 15 17 17 17 15 15 14 13 13 13 13 12 11 11 9 8 8 10 10 10 10 10 10 10 10 10 9
2 1 1 1 3 2 1 3 4 2 1 5 4 6 6 3 2 3 3 2 3 5 5 5 3 2 4 3 2 2 1 0 1 1 2 0 2 2 0 1 1 1 1 2 2 2 4 9 11 13 15 15 14 14 14 14 14 15 14 13 14 16 16 16 16 15 14 14 14 13 12 12 11 10 8 8 8 8 10 11 11 11 11 10 10 10 10
2 0 1 3 3 3 6 4 0 1 1 1 2 1 2 2 3 5 4 2 2 5 7 7 5 4 2 1 3 1 2 0 1 1 1 2 2 1 1 1 1 1 1 1 1 2 5 10 13 15 15 16 15 14 14 14 15 16 15 14 14 15 16 16 16 15 15 14 13 13 11 11 10 9 10 10 9 9 11 11 12 12 11 11 11 10 10
2 2 2 3 1 2 5 5 5 6 5 3 2 3 4 5 6 4 5 3 5 7 6 6 4 4 2 0 1 3 2 1 1 2 1 2 1 2 2 1 1 2 2 2 1 3 6 12 14 16 17 17 15 14 14 14 15 16 16 16 14 14 14 15 15 14 14 13 12 11 11 10 10 10 11 11 10 10 10 10 11 10 10 11 12 11 11
2 2 1 1 2 2 0 2 5 4 6 5 5 6 6 6 5 4 4 5 4 5 4 2 0 0 2 2 2 0 1 1 1 2 2 2 1 1 1 1 2 1 2 2 2 3 9 12 15 16 17 17 17 16 16 15 14 15 15 16 14 14 13 14 13 13 13 12 12 12 11 10 10 11 12 12 11 10 9 10 10 10 10 11 11 11 11
2 2 2 4 5 4 6 7 9 7 5 8 8 7 8 8 7 5 4 4 7 6 5 5 4 2 3 2 2 2 1 1 2 3 1 1 2 2 2 2 1 1 2 4 3 6 10 13 15 15 17 17 18 17 16 15 14 15 16 15 15 14 13 13 13 12 12 12 12 12 11 11 11 11 12 11 12 11 11 9 9 9 9 9 9 10 10
2 4 5 5 5 3 6 5 7 8 7 6 8 6 7 8 5 5 5 6 7 7 6 3 3 3 2 3 1 2 2 1 0 0 2 2 1 2 2 2 1 2 3 4 5 6 10 13 15 17 17 18 18 17 16 15 15 14 15 14 13 13 12 12 12 11 10 10 11 12 12 12 13 12 12 12 13 12 12 10 9 8 8 8 8 8 9
Wind_Direction
130 107 99 136 194 167 160 160 179 158 198 220 225 220 210 222 58 90 167 162 181 210 217 183 195 216 220 223 242 245 241 253 266 258 213 226 147 272 256 264 277 256 255 254 248 231 201 197 192 177 192 187 187 154 181 196 188 194 191 199 150 71 215 180 187 175 116 95 104 151 247 206 199 203 204 189 199 204 206 211 167 194 158 202 174 212 124
94 102 130 177 156 138 160 170 151 138 263 294 271 224 229 259 130 120 134 163 233 245 197 187 202 205 209 226 233 207 260 253 244 236 224 234 70 263 275 278 238 268 278 274 242 215 191 198 191 176 181 169 111 164 186 183 194 196 174 197 152 201 203 198 173 171 178 150 160 190 195 217 208 192 198 194 197 200 212 217 175 204 186 204 189 201 147
103 122 144 129 115 147 147 196 160 126 115 348 296 249 342 266 82 86 154 203 252 225 280 232 191 200 209 211 222 223 226 237 256 265 236 222 256 267 257 247 270 273 285 283 261 214 208 162 169 151 155 146 152 169 203 201 206 197 161 197 146 226 175 198 187 186 182 182 185 186 184 198 198 198 176 193 199 181 182 196 190 210 173 214 212 145 114
74 114 97 110 102 110 120 107 107 114 98 332 270 285 277 261 129 137 160 209 219 257 269 290 246 195 199 212 228 230 231 200 238 249 260 264 258 250 267 279 279 275 273 263 235 205 183 187 156 168 161 141 154 163 190 195 213 130 118 170 171 168 67 359 308 214 197 188 167 59 178 179 186 181 182 181 203 186 199 191 197 204 166 197 210 139 144
98 71 76 61 63 86 103 122 97 96 60 315 304 283 284 294 150 149 159 176 229 238 214 223 233 215 199 216 203 218 227 213 247 180 254 215 244 253 252 265 269 266 235 237 203 188 186 181 165 172 146 99 111 146 176 181 177 115 131 167 156 174 176 28 57 64 46 51 103 26 177 178 180 168 177 170 171 181 196 196 199 153 162 190 117 138 146
69 79 66 53 65 127 98 99 62 48 356 327 291 284 189 251 108 230 164 230 182 197 212 216 217 255 208 216 228 227 201 195 219 127 242 257 227 239 243 249 237 257 248 214 196 184 188 178 171 138 139 128 134 135 163 175 143 168 164 187 208 193 184 109 107 68 58 58 79 101 91 88 117 146 150 157 152 180 190 202 163 156 203 189 146 156 153
56 55 51 41 57 54 59 43 37 4 337 319 312 326 290 268 299 256 161 233 83 196 102 184 205 214 212 231 234 226 208 194 194 219 215 222 235 218 242 238 247 248 255 258 206 182 174 169 157 152 150 156 151 142 145 147 163 183 159 174 335 168 122 137 129 104 73 58 71 110 116 115 96 82 90 100 140 81 132 111 67 141 117 115 128 95 80
42 35 38 51 58 45 36 30 16 5 305 268 289 269 312 14 341 136 189 260 269 189 181 191 196 211 198 224 217 234 209 187 184 212 238 239 249 194 229 230 236 267 268 250 223 177 188 145 155 159 145 148 181 153 168 145 175 179 167 162 155 220 161 160 152 104 68 60 80 99 118 122 98 78 75 89 90 91 81 98 91 115 112 121 114 113 101
33 36 38 39 49 35 32 29 19 359 306 220 273 329 314 314 294 321 287 216 220 189 204 199 201 204 187 220 204 224 210 208 208 217 211 246 264 264 213 155 163 329 330 182 190 10 96 153 156 152 155 157 154 193 145 156 157 163 147 174 158 221 124 197 218 152 98 68 105 119 120 110 99 81 61 56 112 114 84 93 25 338 139 130 124 130 137
28 34 35 34 29 26 25 27 17 356 305 250 301 276 12 284 265 281 290 247 144 207 185 223 211 223 203 212 189 214 163 172 266 227 215 234 254 358 118 149 143 64 39 59 49 36 79 83 76 76 71 75 71 71 101 172 161 155 140 146 167 142 145 175 189 167 119 130 166 132 138 123 118 76 51 43 67 72 88 71 44 3 146 140 170 131 132
20 30 39 32 29 24 22 23 22 9 350 41 358 2 16 12 350 345 267 261 208 225 193 195 220 68 320 204 235 233 253 239 333 242 159 177 90 2 269 161 142 96 102 48 13 53 78 85 89 87 85 83 78 89 83 56 53 112 143 137 122 146 158 168 170 169 123 147 162 214 185 180 142 47 48 341 67 125 113 79 48 26 18 69 63 109 124
24 31 35 27 17 18 19 23 22 18 358 26 333 348 41 353 323 286 291 244 218 189 220 201 220 194 295 356 270 259 234 260 303 285 292 344 20 1 49 125 124 120 206 291 339 351 71 59 65 80 87 87 77 67 70 58 54 38 1 152 146 160 162 150 153 136 149 146 178 173 193 149 23 223 54 125 102 86 101 91 78 81 89 102 106 117 124
28 25 21 19 19 14 18 17 16 18 4 356 346 346 33 29 328 315 305 284 267 203 205 219 280 285 309 341 309 258 296 305 267 250 247 283 6 57 21 91 122 128 143 146 324 3 88 85 80 73 87 89 79 60 52 62 43 36 40 86 156 148 153 127 118 119 119 158 173 191 150 347 165 101 122 106 125 126 110 77 54 71 98 113 113 113 114
23 19 18 20 16 12 8 7 4 10 354 339 306 341 29 351 323 308 336 289 235 283 321 303 259 250 259 176 275 299 316 282 155 172 153 14 70 62 56 37 44 102 182 193 163 77 22 120 137 144 137 152 113 86 50 59 46 36 46 44 270 167 147 155 117 160 165 166 141 66 118 155 133 150 176 176 147 172 190 119 111 73 108 129 125 119 120
18 15 16 12 13 6 359 357 356 357 353 337 304 293 253 214 236 277 318 269 302 297 240 236 21 356 342 109 312 299 246 178 151 106 94 123 78 39 52 68 109 184 184 233 170 170 162 156 150 133 310 109 119 111 151 88 57 45 49 92 296 222 200 144 142 121 215 152 131 153 164 205 180 164 104 32 353 8 43 109 115 142 118 139 136 130 132
13 12 12 10 1 0 354 356 354 351 350 344 294 262 246 228 232 258 284 302 302 213 71 0 321 322 30 289 328 298 299 189 130 138 129 101 101 123 86 90 136 210 216 260 57 90 136 174 166 163 160 133 136 120 140 134 130 78 70 120 127 78 99 154 174 140 175 177 174 169 187 106 59 142 150 122 142 171 179 224 135 151 148 148 145 137 142
7 8 9 3 359 355 354 352 353 349 345 340 330 271 260 183 212 252 296 259 255 347 16 326 334 281 316 238 270 249 259 211 155 151 138 113 87 93 108 96 149 217 255 254 143 178 143 126 108 99 87 55 168 138 136 154 131 116 112 110 66 95 147 159 147 165 188 179 192 174 36 86 145 135 142 138 110 91 236 203 159 153 151 151 150 145 147
3 4 357 356 356 352 350 353 353 346 340 337 306 326 281 203 229 250 232 268 293 310 3 170 184 85 255 299 303 6 298 257 210 79 87 118 139 108 89 196 153 116 278 254 184 110 91 132 152 157 110 19 358 232 159 132 106 96 113 60 144 142 127 231 174 176 161 204 125 93 114 85 121 129 127 116 180 246 195 208 102 148 142 146 145 140 140
359 354 352 349 346 347 349 349 352 344 342 340 322 272 243 239 226 239 282 275 292 43 29 14 270 286 295 285 290 316 302 312 306 174 129 153 81 29 319 52 303 117 291 145 209 121 174 84 346 355 138 149 244 85 44 155 93 53 283 145 110 99 113 60 155 165 181 179 186 111 76 76 133 108 194 127 206 184 118 74 138 133 133 133 135 133 134
5 354 349 346 345 345 347 346 346 346 339 345 329 310 309 288 243 237 255 332 22 290 337 23 338 29 3 343 352 321 254 207 332 257 183 148 104 247 196 170 156 304 129 222 132 13 263 156 97 320 187 141 71 50 93 70 3 45 42 325 295 58 214 172 151 74 51 183 161 169 200 125 207 143 145 221 279 66 120 126 121 128 127 130 126 121 112
359 352 346 345 343 343 341 340 339 337 341 338 330 314 311 106 293 225 243 281 308 273 104 30 357 42 34 34 11 355 356 18 359 329 44 54 19 308 196 189 95 172 68 291 214 130 325 136 149 104 15 12 120 244 126 118 118 92 339 13 41 357 235 132 87 334 196 180 185 140 50 125 140 213 160 99 49 114 135 131 125 125 128 124 118 112 116
351 346 342 340 338 337 335 333 334 330 328 326 318 295 293 109 153 261 228 230 230 262 334 319 293 269 335 40 38 20 8 350 358 327 327 101 11 351 9 73 47 14 49 341 119 92 194 77 102 170 165 123 192 99 132 165 157 107 89 292 178 23 4 343 118 56 350 28 66 117 145 56 71 67 84 87 108 118 124 121 129 129 125 125 117 121 124
350 345 340 339 338 333 329 324 317 316 314 322 307 270 279 297 284 245 196 208 253 263 262 262 236 237 218 170 36 21 21 351 336 323 325 316 153 172 269 203 119 34 52 324 305 5 133 170 159 104 121 96 134 137 170 298 97 152 144 29 53 52 29 124 84 88 105 75 77 99 100 99 83 64 72 99 115 121 118 122 123 120 126 132 125 127 128
349 344 339 335 331 325 319 311 307 308 309 304 300 277 270 262 258 178 180 246 273 284 125 30 56 30 2 357 350 0 16 14 2 328 322 315 272 147 147 57 93 168 99 37 331 324 103 49 83 256 150 91 218 180 178 160 94 116 108 137 118 92 214 228 103 147 188 95 116 94 84 99 84 85 88 90 108 109 113 114 117 121 121 118 121 126 131
346 341 336 332 327 319 312 308 307 308 309 313 300 249 248 258 215 197 204 265 212 246 94 57 45 3 348 338 350 12 11 344 338 351 287 254 303 307 80 80 32 343 98 95 208 148 143 143 152 183 124 98 297 164 22 144 140 205 134 107 149 144 210 91 124 123 6 114 119 99 86 75 84 103 112 114 116 114 109 115 117 118 119 115 122 126 125
343 339 335 330 321 315 312 309 310 308 310 315 299 257 228 235 198 203 245 259 273 280 87 72 66 39 43 48 34 15 341 353 21 43 50 49 34 51 122 141 107 59 98 117 255 178 109 100 113 104 135 124 294 334 83 3 99 133 323 104 16 101 187 147 147 100 93 97 114 124 110 82 85 97 93 114 125 117 119 120 120 118 113 113 117 125 130
340 336 333 330 323 317 317 319 319 320 319 321 301 234 223 223 203 199 220 330 277 113 71 88 81 64 49 50 34 16 19 23 35 48 55 56 74 91 105 119 118 131 130 103 41 81 76 78 84 70 48 89 68 66 89 125 118 124 93 93 156 165 144 120 124 125 159 176 174 163 148 165 127 110 120 123 124 124 124 125 122 117 116 119 122 121 119
337 333 331 329 325 320 319 320 320 321 323 327 297 230 207 221 211 222 242 265 303 68 115 110 89 81 67 51 27 33 32 38 42 52 57 60 61 65 85 101 120 133 134 157 148 151 111 115 76 75 85 119 139 78 61 95 106 82 100 109 301 229 116 171 169 170 160 138 152 176 70 113 120 125 125 127 127 129 129 129 123 117 119 125 127 127 125
334 331 330 329 324 321 322 319 318 317 322 316 238 188 202 226 214 217 225 243 252 296 94 90 85 69 54 23 0 52 48 50 51 53 61 61 62 63 65 60 63 78 82 68 75 76 79 73 54 73 79 1 335 136 165 154 142 118 101 120 38 348 344 347 53 71 87 128 143 153 143 129 130 128 124 125 130 128 123 123 117 120 127 130 128 129 128
332 328 328 327 323 320 317 314 311 313 316 287 203 228 212 128 190 208 199 220 232 286 133 112 93 81 172 359 41 42 51 55 58 55 57 59 57 58 61 66 66 59 66 69 95 90 81 86 81 73 55 306 253 140 172 109 112 96 115 152 88 141 120 65 11 345 137 138 135 114 112 115 119 120 120 122 127 128 125 129 128 119 122 127 128 127 127
328 324 324 323 319 313 311 311 308 310 296 229 226 227 156 118 135 184 177 218 222 279 80 93 98 150 97 66 5 27 33 52 50 50 49 55 55 54 59 76 54 59 93 79 72 70 67 88 88 99 96 13 336 155 133 123 126 119 123 91 124 142 138 99 117 109 117 116 113 114 112 113 117 112 111 119 124 127 122 123 122 119 125 126 125 126 126
326 322 320 319 314 311 308 309 311 316 286 267 319 19 32 24 34 134 174 220 204 221 125 115 131 115 83 91 45 3 11 21 25 75 51 25 67 54 60 53 67 46 46 72 77 86 57 62 69 66 70 351 322 94 138 151 133 126 125 135 130 117 104 114 116 121 124 123 120 110 111 121 132 128 126 129 126 125 123 122 123 121 121 121 120 117 118
324 320 317 315 313 311 310 310 313 313 297 355 311 264 70 346 301 245 179 192 219 51 339 55 67 119 92 66 326 42 342 251 73 45 58 13 51 41 69 59 79 66 14 45 47 74 63 95 98 78 58 67 84 100 91 91 107 122 127 131 128 118 119 123 127 128 132 138 139 133 136 131 118 119 123 123 123 122 119 113 111 111 117 117 115 113 109
320 317 313 311 310 310 311 312 304 276 245 248 156 87 100 16 96 181 227 243 57 92 310 78 115 94 95 217 114 52 336 32 62 27 80 27 338 43 74 75 55 76 20 49 91 116 109 97 86 102 101 73 95 103 91 103 121 129 129 127 120 123 126 126 125 123 130 132 122 123 123 125 121 117 117 117 118 117 112 119 120 116 113 111 110 112 116
317 313 311 307 305 307 304 298 286 211 298 107 86 98 19 360 357 205 219 261 218 113 116 69 309 118 101 84 71 63 352 358 70 32 74 68 9 47 60 61 41 65 55 295 76 53 80 52 304 139 75 90 78 75 101 136 134 131 132 130 131 128 126 120 120 125 128 125 122 122 126 128 126 125 124 126 125 121 118 113 115 115 113 111 113 121 131
313 310 306 301 296 290 270 223 298 288 156 38 45 3 345 324 280 191 200 239 328 117 129 96 249 106 145 112 97 101 257 82 71 93 58 104 90 26 36 75 83 56 322 23 68 53 55 340 264 104 100 79 51 72 131 143 138 138 135 138 144 144 136 128 128 129 124 123 124 127 130 130 126 124 126 122 119 116 116 117 117 118 118 124 129 130 127
311 309 301 289 275 210 230 48 14 8 20 314 299 312 293 286 195 210 220 193 68 334 49 164 146 84 1 86 108 106 265 102 305 82 45 59 68 23 32 74 72 76 89 66 56 58 49 15 74 82 53 64 78 84 108 127 135 135 134 137 143 133 131 131 129 126 124 123 126 130 132 129 126 127 126 125 124 125 127 132 137 139 142 139 138 137 134
310 296 283 286 238 196 168 130 29 354 324 288 279 258 158 219 178 135 102 70 24 293 86 291 82 105 249 259 93 42 279 105 284 93 98 8 150 78 20 60 39 274 75 59 68 9 67 61 72 76 68 61 78 93 102 104 104 112 116 126 131 133 134 135 136 130 126 128 130 135 136 130 126 129 132 134 136 140 143 146 147 147 141 139 134 132 135
287 272 232 260 257 174 24 37 4 321 281 254 250 253 97 346 205 149 51 343 228 126 29 290 113 180 164 100 88 61 343 1 136 335 100 36 330 94 305 94 84 343 106 140 92 275 101 92 98 87 76 110 106 102 109 101 87 75 99 119 126 129 135 139 144 137 137 139 138 136 140 138 137 136 136 139 144 146 146 146 141 141 138 134 136 140 141
318 259 339 243 92 26 330 328 336 305 248 212 32 289 136 354 259 137 27 189 123 75 243 134 45 346 329 19 125 117 49 295 49 88 85 99 332 35 94 78 82 66 72 63 78 313 129 118 113 119 110 110 108 126 129 125 111 103 100 110 124 131 125 114 114 97 97 95 97 96 124 124 131 139 142 143 142 142 143 139 137 136 137 135 138 143 142
5 326 285 355 9 326 321 312 294 234 278 190 140 44 201 147 49 14 247 197 79 98 338 71 156 174 145 265 228 107 107 290 41 345 56 66 5 276 95 75 341 79 81 88 92 335 90 107 118 112 118 129 128 135 128 131 131 131 121 114 105 106 109 106 105 105 108 111 114 110 102 110 126 136 139 142 143 141 139 136 138 137 135 137 145 133 125
322 302 318 298 288 284 277 236 311 144 61 331 201 103 13 46 131 203 251 228 146 148 146 199 178 152 127 5 42 85 119 333 315 269 238 95 2 15 93 117 219 118 84 67 110 77 111 102 122 120 125 135 138 143 139 136 137 137 135 132 123 118 115 115 115 119 128 133 136 135 134 135 130 133 139 141 140 139 137 137 135 139 141 132 124 129 133
288 257 236 275 251 227 285 200 66 296 199 175 120 117 185 198 198 214 162 152 31 250 111 335 49 62 93 241 120 20 40 23 282 50 31 79 162 252 99 102 125 82 99 161 207 103 109 124 130 132 140 141 150 148 144 142 143 141 142 139 135 134 132 133 138 142 145 143 143 143 144 145 146 143 143 139 137 137 137 137 139 136 131 131 129 127 130
243 236 221 229 221 113 267 199 144 132 63 279 186 183 180 197 177 190 216 168 156 168 156 173 166 199 143 334 332 134 163 168 240 88 81 113 277 69 58 70 63 79 137 191 154 122 115 123 130 139 143 142 147 145 143 145 147 149 149 148 146 147 147 148 148 148 145 144 145 146 149 146 140 140 142 140 144 142 141 142 143 134 127 129 133 135 133
265 212 225 175 189 93 164 275 195 232 205 191 208 205 177 196 178 196 175 117 193 156 162 185 172 194 117 117 251 93 292 100 146 265 98 158 101 33 40 100 122 178 196 136 135 118 141 147 138 141 144 150 150 145 147 148 150 151 149 146 147 149 149 148 147 146 146 150 148 149 147 148 148 150 151 154 155 154 151 148 145 147 146 142 138 136 137
244 200 179 168 358 286 222 187 146 203 225 167 195 203 199 209 179 185 92 162 162 141 167 170 176 150 125 119 293 103 148 198 137 54 331 258 96 79 56 88 221 179 105 200 178 189 179 164 158 156 154 153 154 150 151 149 150 149 151 151 151 150 150 150 150 150 150 150 152 152 149 155 156 157 155 151 157 162 162 154 158 160 154 148 144 143 144
264 264 264 237 221 174 230 212 193 210 172 184 207 198 211 183 127 57 89 206 182 147 129 149 161 165 154 152 163 160 169 112 85 83 261 98 86 106 267 235 193 190 189 208 217 204 154 153 160 156 156 155 154 154 155 155 156 160 162 157 158 157 155 156 155 155 154 156 157 155 156 158 158 155 150 151 155 152 148 152 160 160 157 150 145 144 149
248 168 245 204 207 170 193 208 291 81 305 256 187 181 40 39 184 185 151 204 148 152 156 153 154 141 132 59 282 91 113 122 126 94 14 96 134 150 153 212 228 208 242 255 173 154 147 152 158 158 159 158 158 158 159 161 163 166 163 163 165 162 161 159 159 157 159 161 160 159 158 156 157 157 161 150 144 144 150 153 157 158 153 147 146 152 159
314 277 220 224 228 188 206 172 178 206 175 182 196 196 184 192 207 149 132 161 175 168 166 186 167 179 134 113 193 159 155 161 205 126 177 203 206 168 193 193 199 232 183 235 72 111 146 153 156 158 159 160 159 164 164 166 166 166 165 165 167 165 164 162 160 160 163 165 163 161 161 160 162 163 156 150 148 147 149 149 153 154 155 154 157 161 165
236 213 230 233 190 213 87 147 211 212 173 178 185 195 193 211 196 127 143 163 160 144 132 70 40 33 107 184 171 166 147 151 82 137 212 202 176 159 234 228 199 250 100 156 146 126 140 151 154 161 161 161 162 167 168 168 170 169 165 168 168 170 171 169 166 166 170 169 169 167 161 162 169 165 161 161 153 146 148 156 161 163 162 165 167 170 169
229 268 242 221 232 190 161 192 195 201 186 190 193 191 190 203 202 162 173 171 160 160 177 181 166 155 157 170 176 179 140 109 203 196 240 179 151 211 220 251 193 193 77 83 103 135 150 153 159 162 162 163 167 170 170 169 170 171 168 169 171 173 173 174 172 172 175 176 173 166 167 172 172 164 161 157 151 155 156 158 169 172 171 175 177 176 173
197 206 224 201 226 256 206 212 205 212 207 191 198 185 191 203 177 130 161 178 168 184 178 149 168 158 172 182 176 86 109 192 137 140 224 199 189 229 221 259 5 61 101 138 136 144 153 160 162 163 165 165 168 169 169 170 174 173 171 170 171 173 173 173 172 172 172 170 170 172 174 173 172 166 161 158 160 165 168 171 176 179 180 183 184 185 176